264  
NZUS99 KDVN 161610  
HRRRRR  
HOURLY WEATHER ROUNDUP  
NATIONAL WEATHER SERVICE QUAD CITIES IA IL  
1100 AM CDT TUE JUL 16 2019  
 
NOTE: "FAIR" INDICATES FEW OR NO CLOUDS BELOW 12,000 FEET WITH  
NO SIGNIFICANT WEATHER AND/OR OBSTRUCTIONS TO VISIBILITY.  
------------------------------------------------------------------  
 
CITY SKY/WX TMP DP RH WIND PRES REMARKS  
BURLINGTON CLOUDY 76 70 82 VRB3 29.93S  
CEDAR RAPIDS CLOUDY 75 69 81 VRB3 29.95S  
DAVENPORT CLOUDY 75 68 78 CALM 29.96S  
DUBUQUE FAIR 75 69 81 S5 29.96S  
IOWA CITY CLOUDY 77 69 76 SW3 29.97S  
MOLINE CLOUDY 77 70 79 E5 29.93R  
------------------------------------------------------------------  
THE STATIONS BELOW ARE NOT NWS STATIONS AND ARE NOT SUBJECT TO NWS  
QUALITY CONTROL. SOME STATIONS DO NOT REPORT WEATHER SUCH AS FOG.  
* - STATIONS THAT REPORT TMP AND DP IN WHOLE DEGREES CELSIUS, WHICH  
ARE THEN CONVERTED TO FAHRENHEIT.  
------------------------------------------------------------------  
 
CITY SKY/WX TMP DP RH WIND PRES REMARKS  
CLINTON CLOUDY 75 70 84 CALM 29.95S  
FAIRFIELD * CLOUDY 73 68 83 W7 29.96S  
FORT MADISON * CLOUDY 75 72 88 NW6 29.95R  
FREEPORT CLOUDY 73 71 91 CALM 29.97S  
INDEPENDENCE FAIR 82 70 67 W7 29.94F HX 86  
KEOKUK * CLOUDY 77 72 83 NW7 29.93R  
MACOMB CLOUDY 75 72 88 W3 29.95S  
MONTICELLO * PTSUNNY 77 73 88 VRB5 29.95R  
MT PLEASANT * CLOUDY 73 72 94 CALM 29.96R  
MUSCATINE * CLOUDY 77 70 78 NW6 29.95R  
SAVANNA * CLOUDY 73 70 88 CALM 29.94S  
STERLING/R.F. LGT RAIN 74 73 97 NW7 29.94S FOG  
VINTON FAIR 83 69 61 SW6 29.94F HX 87  
WASHINGTON * CLOUDY 75 72 88 W6 29.94S  
------------------------------------------------------------------  
 
 
CLICK HERE TO GO TO PREVIOUS BULLETINS.

The Nexlab IL Page
The Nexlab IA Page
The Nexlab MO Page Main Text Page